STARLINK-32259, 60937

Orbit data source: Space-Track

STARLINK-32259, 60937 is a payload satellite owned by SpaceX/Seattle (US) in LEO that was launched on Sat, 31 Aug 2024 UTC via an FALCON 9 launch vehicle from the Air Force Western Test Range (AFWTR). Payload-class satellites include a variety of spacecraft equipped with specific instruments for various scientific and technological missions. These include communications satellites like Starlink; space stations such as the ISS; scientific satellites like the Hubble; Earth observation satellites from companies like Planet Labs, Umbra, and HawkEye 360; GPS; miniature CubeSats for education and research; and military/defense satellites.

Loading next visibility...
Identifier
60937, 2024-155P
Orbit
LEO
Country
Flag of USUS
Related business
Manufacturer
SpaceX/Seattle
Mission
Operational Commercial Communications
Bus & Motor
STARLINK V2M, Unknown motor
Mass
730 kg wet, ~700 kg dry
Launch date (UTC)
2024-08-31 (2 years ago)
Launch vehicle
FALCON 9
Launch site
Air Force Western Test Range (AFWTR)
Object type
Payload
Rocket body
Debris
Shape & HBR
Box + 2 Pan, 17.7 m
Radar Cross Section
33.884 m², Large (>1 m²)

Expand to show TLE details & history
Last TLE update: 20 hours ago

TLE from 20 hours ago
0 STARLINK-32259
1 60937U 24155P   26171.00002315  .00056227  00000-0  16646-2 0  9997
2 60937  53.1592  14.4695 0000600  93.9584 306.8193 15.34366151  5870
Epoch: 2026-06-20T00:00Z
TLE epoch observation values (Epoch: 2026-06-20T00:00:02.000Z)
Latitude
31.60958°
Longitude
133.53278°
Altitude
464.523 km
Speed
7.639 km/s
True Right ascension
02h 47m 02s
True Declination
31° 26' 59"
Sunlit
Object was in daylight at epoch
Visualization orbit readout
Latitude
Unknown
Longitude
Unknown
Altitude
Unknown
Speed
Unknown
Apparent Right ascension
Unknown
Apparent Declination
Unknown
Sunlit
N/A
Visualization observer readout
Local Sidereal Time
07:13:20
Azimuth
Unknown
Elevation
Unknown
Doppler factor
Unknown
Orbital elements
Apogee altitude
463.471 km
Perigee altitude
462.65 km
Semi-major axis
6,841.198 km
Eccentricity
0.00006
Inclination
53.1592°
RAAN
14.4695°
Arg. of periapsis
93.9584°
True anomaly
306.8138°
Mean anomaly
306.8193°
Eccentric anomaly
306.81655°
Mean motion
3.8357 °/min
Orbital period
93.86 mins
BSTAR
0.0016646
Loading maneuver chart data...
Computing Atmospheric mass density...
Loading historical data...
Loading historical data...
Loading historical data...
Loading historical data...
Loading historical data...
Loading historical data...
Loading historical data...

Documentation

Showing up to 5 results
|